Dewpoint
17 16 15 15 15 15 16 15 17 17 21 22 17 16 21 21 15 15 18 21 18 17 16 17 21 22 23 24 26 26 25 22 21 21 21 21 22 23 23 23 22 29 37 38 37 38 42 45 45 48 48 49 47 49 49 48 50 49 50 50 49 48 48 48 48 48 49 48 48 47 47 47 47 46 46 45 44 44 43 43 44 43 41 41 40 40 40
19 17 17 18 15 16 14 17 17 18 21 18 18 17 18 18 17 19 18 18 19 20 17 15 20 24 25 24 25 23 21 21 24 26 27 27 27 27 27 25 24 26 30 33 36 38 38 42 44 44 45 46 48 48 48 48 48 49 49 49 48 47 47 47 48 48 48 48 47 46 46 45 45 44 44 44 43 43 43 42 40 41 41 41 40 39 39
18 20 18 14 14 18 17 18 19 20 20 18 19 18 18 21 19 20 19 18 19 19 22 22 23 25 23 23 20 20 25 31 32 30 29 28 29 29 29 30 30 31 35 38 40 40 39 40 42 44 45 45 44 45 47 48 49 48 48 48 47 46 46 47 48 48 47 46 46 45 44 44 43 43 43 43 43 42 41 41 40 40 40 38 38 38 38
15 19 18 16 17 16 15 16 18 19 18 17 17 17 18 14 16 17 17 17 17 16 18 21 22 22 23 23 24 29 33 33 32 31 31 30 29 28 28 29 29 30 30 38 42 41 42 43 44 44 46 47 46 48 47 48 49 49 47 47 46 45 45 46 45 45 44 44 44 43 43 42 42 42 42 42 41 40 40 39 39 39 38 38 38 37 38
13 16 20 19 18 15 12 14 16 17 18 19 20 22 24 22 19 16 17 19 18 17 21 23 24 25 28 29 30 30 32 33 32 32 31 30 29 29 28 30 33 33 33 35 41 44 44 44 44 47 47 47 48 49 48 50 49 49 49 48 45 44 45 44 43 43 43 43 42 42 42 42 41 41 41 40 39 38 37 39 39 38 37 36 36 37 36
13 18 20 18 14 9 10 12 24 22 19 20 20 20 21 22 23 21 21 19 21 23 24 26 30 30 30 32 33 33 31 30 31 30 30 31 32 34 35 36 36 36 36 37 38 42 44 45 46 48 49 47 49 49 49 49 49 48 47 45 43 43 43 43 42 42 42 41 40 40 40 40 40 39 39 38 38 37 38 38 37 36 36 36 36 36 36
15 14 14 12 9 10 15 19 25 23 23 23 22 21 21 24 26 28 25 23 26 29 33 33 33 34 34 35 34 33 32 31 30 31 34 35 35 35 36 36 36 36 36 37 38 41 42 43 46 48 49 47 48 48 48 48 49 48 48 45 42 41 40 41 41 41 40 39 38 38 38 38 38 38 38 37 37 37 36 36 36 35 35 34 35 37 36
18 13 12 7 10 15 24 24 27 28 23 28 27 23 25 30 29 29 27 27 31 31 33 34 34 35 35 34 34 34 33 32 34 33 33 33 33 34 36 38 39 39 39 41 43 44 45 44 48 49 48 48 47 47 48 48 48 48 47 43 40 39 39 39 39 38 37 36 37 37 37 37 37 36 36 36 35 36 36 36 35 35 35 35 35 35 36
14 13 13 13 17 17 17 18 25 30 27 28 25 20 24 30 30 31 31 31 31 32 31 32 33 33 32 30 30 32 31 33 34 34 33 34 35 37 39 39 40 41 41 42 43 45 47 46 48 47 46 46 45 45 45 46 46 46 45 41 38 39 39 37 36 36 36 36 36 36 36 36 35 36 36 35 35 35 35 34 34 34 34 34 35 35 35
20 15 14 12 11 11 14 29 35 36 35 34 31 24 21 30 31 31 30 30 31 32 32 33 34 34 30 27 28 30 33 33 33 33 34 35 39 40 40 41 41 43 44 44 43 45 45 46 47 48 48 47 44 43 42 44 43 44 42 41 39 38 37 36 35 34 34 35 35 36 36 36 36 36 36 35 34 34 34 33 33 33 33 33 34 35 34
18 17 14 12 10 12 18 29 33 34 34 34 32 22 18 25 28 28 27 29 30 31 32 33 34 31 27 27 29 30 33 33 33 33 35 39 40 41 42 43 44 45 45 47 47 47 47 46 46 46 46 46 44 44 44 42 41 40 37 37 38 38 37 35 33 34 34 35 35 35 36 37 36 35 34 33 34 35 34 33 33 33 35 34 33 34 34
18 17 15 14 13 15 24 32 32 32 32 32 23 11 13 27 28 27 29 29 30 29 33 34 31 28 27 28 29 33 34 34 34 37 40 40 40 40 43 44 45 45 46 47 46 46 45 44 43 45 44 44 45 44 44 42 41 36 37 36 34 32 31 31 31 33 36 37 35 35 36 36 36 34 33 33 34 34 33 33 32 33 33 32 33 33 33
22 22 19 18 18 23 33 32 33 33 34 24 15 12 18 27 27 28 31 29 30 30 31 33 29 32 32 32 34 35 35 34 37 40 40 40 40 41 43 45 45 47 46 46 46 47 46 47 48 46 46 44 43 42 42 42 40 36 32 32 33 31 30 31 33 35 35 35 35 35 35 34 35 34 34 35 34 33 32 32 32 32 31 31 32 32 32
17 17 16 15 16 29 35 36 37 35 26 16 14 26 25 24 25 29 30 29 30 31 32 33 34 34 36 37 36 35 35 35 39 40 40 41 42 43 44 45 46 46 44 44 46 48 48 46 46 47 46 45 44 43 43 41 37 36 33 33 31 31 31 33 33 34 35 35 37 38 36 36 35 34 34 34 33 33 32 31 30 30 30 31 31 31 32
13 11 10 11 8 21 34 33 27 33 22 26 23 21 23 27 25 28 31 31 32 34 33 35 36 36 36 36 36 35 35 37 39 39 40 40 40 42 45 46 47 45 44 46 47 47 49 49 48 48 47 44 42 40 39 37 36 34 33 32 31 32 32 32 33 33 35 36 38 39 37 36 35 32 33 34 32 32 31 29 29 29 30 31 31 31 31
16 15 10 10 24 25 33 26 20 25 29 27 23 27 26 29 32 33 31 31 34 34 34 34 35 36 36 35 35 36 36 38 39 39 39 39 40 43 44 46 47 45 45 46 47 47 47 48 48 48 47 43 41 37 32 32 31 31 32 32 31 31 32 33 33 34 34 33 32 32 33 31 28 29 32 31 31 31 30 29 28 29 30 31 31 30 30
15 16 18 21 22 23 30 31 27 30 27 27 32 33 32 31 33 35 33 34 34 36 36 36 36 35 35 34 35 35 36 38 38 38 38 39 41 43 43 44 47 47 45 46 47 47 47 47 47 47 45 42 34 32 32 31 30 31 32 32 32 33 33 31 29 29 30 30 30 30 29 27 27 31 31 31 29 30 29 29 28 29 30 30 31 30 29
21 18 19 25 22 22 23 23 24 22 22 26 33 34 31 35 35 35 34 35 35 37 37 37 36 36 35 35 35 35 36 38 38 39 39 40 41 42 43 44 46 47 47 47 46 45 46 47 46 46 39 36 33 32 32 32 31 31 31 32 33 32 28 27 26 26 28 28 28 29 31 30 30 31 31 31 29 29 29 29 28 29 29 30 31 30 28
16 14 18 17 18 19 20 19 21 22 30 32 33 33 33 35 36 37 37 37 37 37 37 37 36 35 35 35 35 36 36 38 37 38 39 40 42 43 44 45 44 45 45 46 46 46 45 44 42 43 37 34 32 33 32 32 32 32 32 31 31 29 29 29 29 29 29 28 28 31 30 29 30 32 31 30 29 29 28 28 28 29 30 30 29 28 28
15 16 16 16 16 18 19 23 24 27 28 29 32 32 33 34 36 37 38 38 38 37 37 37 35 34 34 35 36 36 37 37 38 39 40 41 41 43 45 45 45 45 44 44 45 45 43 37 41 36 32 32 31 32 32 32 32 31 31 31 30 28 28 28 28 30 29 30 31 30 30 29 29 29 30 31 27 27 28 28 26 28 28 28 28 28 29
16 16 16 18 21 18 24 26 25 26 29 33 33 34 34 36 36 37 38 39 39 39 37 34 34 34 34 36 38 39 38 36 36 38 40 42 43 45 44 44 42 44 43 40 40 42 37 38 40 35 32 31 30 31 32 32 30 29 30 30 29 30 30 28 28 29 31 31 31 31 31 31 29 30 29 28 29 28 28 29 29 27 25 28 29 29 31
17 16 17 22 17 19 21 25 27 27 28 31 34 34 34 35 36 37 37 37 37 35 35 34 34 34 35 37 38 39 39 39 37 36 35 38 40 42 43 43 42 39 38 43 43 38 39 36 36 33 34 33 31 30 30 29 28 27 28 30 31 30 30 29 29 30 31 31 32 31 30 28 29 29 31 32 31 28 27 34 33 33 32 28 29 31 31
17 19 20 23 25 25 26 27 26 26 27 28 31 32 30 33 37 37 36 36 36 34 34 35 34 35 36 38 39 40 40 40 40 39 37 36 35 41 41 43 41 40 38 39 41 41 42 37 33 32 32 31 34 33 32 30 29 30 30 32 33 31 30 31 29 30 31 31 31 31 30 29 30 27 27 29 31 32 32 33 33 33 33 32 32 33 33
19 21 22 25 25 23 23 25 27 27 29 30 31 33 33 31 36 36 36 36 35 33 34 35 35 36 38 40 41 41 41 41 41 40 40 37 34 35 40 42 42 40 38 38 38 41 40 35 33 32 32 32 31 32 32 31 32 32 33 32 31 31 31 32 31 32 31 31 32 30 28 28 29 27 27 26 28 31 32 33 33 33 32 31 32 32 32
17 20 21 23 25 27 27 28 29 29 31 36 36 34 33 33 35 37 37 35 34 35 35 35 35 36 38 40 41 41 41 41 41 40 39 38 39 40 41 40 40 39 38 41 43 44 45 33 32 32 32 32 32 31 31 31 33 33 32 31 29 29 29 29 30 31 30 31 31 31 30 28 29 28 27 25 24 24 28 32 33 32 31 31 32 32 32
22 28 29 28 28 29 30 28 28 30 35 35 33 33 34 38 37 38 35 34 35 35 35 35 36 37 39 39 40 41 41 41 40 40 42 42 42 41 41 41 42 42 42 43 43 45 42 32 32 31 30 31 31 32 33 34 33 31 31 30 29 30 30 31 32 32 31 31 30 29 29 28 26 28 27 26 24 24 25 27 28 30 31 31 31 31 32
30 30 28 28 26 26 28 28 28 30 31 32 33 33 36 36 39 40 37 37 36 37 37 36 37 39 39 40 40 41 41 41 42 41 42 42 42 42 40 41 42 43 43 44 43 43 40 30 31 31 30 31 32 34 34 34 33 32 32 32 30 30 31 31 32 30 29 31 31 31 30 29 28 28 28 26 25 24 24 24 24 28 28 29 30 31 31
29 32 32 29 27 27 27 29 32 32 31 31 35 36 37 38 39 39 37 38 38 38 38 37 38 38 38 40 41 41 41 41 40 41 41 42 42 42 39 39 40 41 42 43 44 37 35 36 38 36 34 35 35 34 33 33 32 31 32 31 31 29 29 29 31 31 30 31 33 29 29 29 29 28 28 26 25 25 26 26 26 26 28 27 26 30 31
28 32 35 34 31 31 32 31 32 33 33 34 36 35 36 37 37 38 38 39 37 38 37 38 39 39 40 41 41 40 40 41 40 39 39 41 41 40 40 40 40 40 39 39 38 36 36 35 34 34 34 35 34 35 35 34 34 34 33 33 31 31 31 31 31 30 31 32 31 30 30 29 29 27 25 25 26 26 26 25 25 26 27 27 27 29 30
29 30 32 33 35 35 35 34 34 34 33 35 36 36 36 39 37 35 36 38 37 37 38 39 39 40 41 41 41 40 40 40 39 40 40 38 38 39 39 39 37 37 37 37 37 37 37 36 36 35 34 35 36 35 33 33 32 33 33 33 31 29 27 27 27 29 29 30 31 31 31 30 28 26 25 25 26 26 26 24 26 25 27 27 29 27 28
33 34 35 35 35 34 34 34 35 35 35 36 36 35 36 38 37 35 36 37 39 38 38 38 39 40 40 41 41 41 42 40 39 39 37 36 36 37 37 37 36 35 36 36 37 37 38 39 39 39 38 37 38 38 38 35 33 33 32 31 31 29 27 26 26 27 28 31 32 32 32 31 28 26 25 26 26 27 27 26 25 26 26 26 26 27 28
35 35 35 35 33 32 32 34 35 34 34 37 38 37 36 36 37 37 38 38 38 37 38 38 38 39 40 40 40 40 40 38 37 36 36 36 36 37 37 36 35 34 36 36 36 37 37 37 38 40 39 36 35 35 36 37 37 36 36 33 33 33 29 26 27 28 31 31 32 32 31 29 27 26 26 26 26 25 26 25 25 25 25 26 27 24 28
33 33 32 31 31 31 31 31 32 32 33 33 32 33 36 40 40 38 38 37 38 37 38 38 39 40 41 40 40 39 38 36 35 35 35 34 33 34 33 33 33 33 34 34 36 35 34 35 38 38 37 38 36 33 33 34 35 35 36 36 36 35 33 31 30 31 33 32 30 30 29 29 29 27 25 26 26 26 27 26 27 26 27 26 26 27 28
33 33 32 32 32 31 31 31 33 34 34 35 36 36 38 38 36 38 37 37 38 39 39 39 40 40 40 40 38 36 33 33 32 33 33 34 33 33 32 31 31 32 33 33 33 34 32 33 33 36 35 34 34 34 33 33 33 32 34 36 36 35 34 34 34 34 32 31 30 30 30 29 27 28 28 27 27 27 27 27 27 26 25 27 26 28 29
33 33 33 32 32 32 32 33 34 34 34 36 36 37 37 36 36 36 36 38 39 40 40 40 40 39 38 36 35 32 32 32 32 33 33 34 33 33 32 30 29 29 30 31 33 33 33 32 33 33 34 33 34 33 33 32 32 32 32 34 35 34 35 35 34 33 31 32 31 30 28 29 28 29 29 27 28 28 27 27 27 27 26 26 28 28 28
33 32 32 32 33 33 34 34 35 35 36 37 38 37 36 36 38 39 39 39 40 39 38 37 37 36 35 34 33 32 31 31 31 31 31 32 32 32 32 31 28 28 29 31 33 34 33 34 32 32 34 34 34 33 33 32 32 32 33 34 34 34 34 35 34 34 33 33 31 30 29 30 31 30 30 29 28 28 27 27 27 27 27 26 28 28 28
33 32 33 33 34 34 34 35 35 35 35 35 36 37 37 36 36 35 36 36 37 36 36 35 35 33 31 30 30 30 30 30 29 29 30 30 30 30 30 30 29 27 26 26 28 30 31 31 31 32 32 33 32 32 32 32 32 33 34 34 34 33 33 33 33 34 34 34 32 31 30 31 32 32 31 30 31 30 28 27 27 27 28 29 29 28 28
33 33 34 34 34 34 34 34 35 35 35 35 35 36 36 36 36 35 35 35 36 35 35 35 35 35 32 30 29 28 29 29 29 28 28 28 29 29 29 29 30 29 27 27 29 29 30 31 31 31 31 32 32 32 32 32 32 33 34 33 33 33 33 33 33 32 32 32 32 32 32 32 31 31 32 31 31 32 32 31 29 27 27 28 28 28 29
33 35 35 35 35 34 34 34 34 34 35 35 35 35 35 35 35 35 35 35 36 36 36 36 34 29 28 28 28 28 28 28 28 27 27 27 27 28 28 29 29 30 30 29 28 29 30 30 30 31 31 31 32 32 32 32 32 33 33 33 34 33 33 33 33 32 33 32 32 32 32 32 31 31 31 31 31 32 32 32 32 30 28 27 28 28 29
34 35 34 34 34 34 33 33 33 33 34 35 35 35 35 34 34 35 36 37 37 36 36 33 31 30 30 30 29 29 29 29 29 27 26 26 26 26 27 28 29 30 30 29 27 28 30 31 30 30 31 31 31 31 31 32 32 32 33 33 33 32 32 32 32 32 32 32 32 32 32 32 31 31 31 31 31 31 32 32 32 32 31 29 29 28 29
35 35 35 35 34 34 34 33 33 33 33 34 34 35 35 35 34 34 35 35 35 34 32 31 29 29 28 28 27 26 25 25 25 25 26 26 26 27 27 28 29 30 30 28 28 28 30 30 30 30 30 31 31 32 31 32 32 32 32 32 32 32 32 31 31 31 31 32 32 32 32 31 31 31 31 31 31 31 31 31 31 32 32 32 32 31 31
33 34 34 35 34 34 34 34 34 33 33 34 34 34 34 35 34 34 34 34 35 34 33 34 33 32 30 29 28 27 25 23 23 23 23 23 24 27 27 27 29 30 30 29 28 28 29 29 30 30 30 31 31 32 31 31 32 32 32 31 31 31 31 31 31 31 31 31 31 31 31 31 31 31 31 31 30 31 31 31 31 31 31 31 32 32 32
33 33 34 35 35 34 34 34 33 33 33 34 34 34 34 34 34 34 34 33 34 34 34 33 33 32 32 31 31 28 26 26 24 24 23 23 23 24 26 27 29 29 30 28 27 27 28 29 29 30 31 31 31 31 31 31 31 31 30 31 31 31 31 31 30 30 30 30 30 31 30 30 30 30 30 30 30 30 30 30 30 30 31 31 31 31 31
32 33 33 34 35 35 35 35 34 34 33 34 34 35 34 34 34 33 33 33 33 32 32 31 30 31 30 30 27 27 28 28 27 26 24 23 22 23 26 27 28 29 29 28 27 28 28 29 30 30 31 31 31 31 30 30 30 30 30 29 30 30 30 30 30 30 29 30 30 30 30 30 30 30 30 30 30 30 30 30 29 30 30 30 30 30 31
30 31 31 31 32 32 33 34 34 34 35 35 35 34 34 34 34 34 32 30 30 29 29 28 27 26 25 26 27 26 26 26 26 26 25 24 23 23 25 29 29 29 29 29 28 28 28 29 30 30 30 31 30 30 29 29 29 29 28 28 28 29 29 29 29 29 29 29 29 29 30 30 30 30 30 30 30 30 29 29 29 29 29 30 30 30 30
27 28 29 30 31 31 31 32 32 32 32 31 31 32 33 33 34 34 34 32 31 29 28 27 26 25 24 24 24 26 26 26 26 25 24 23 23 23 27 29 28 29 29 28 28 27 28 30 30 30 30 30 30 29 28 28 29 28 28 28 28 28 28 28 28 28 28 28 29 28 28 29 29 29 30 30 30 30 30 30 29 29 29 29 29 29 30
26 26 26 26 26 26 28 29 28 27 27 27 28 29 30 30 30 31 31 31 29 26 25 25 25 25 24 23 23 23 24 24 25 26 25 26 26 26 28 29 29 29 28 28 28 28 28 29 30 30 30 30 29 28 27 27 27 27 28 27 27 27 27 27 28 27 27 27 28 28 29 29 28 28 29 29 29 29 29 29 29 28 28 28 28 29 29
25 24 24 24 25 26 26 26 25 25 25 25 25 26 27 28 28 28 28 26 26 26 24 23 23 24 24 24 23 23 23 26 25 23 23 23 25 26 25 25 28 30 29 28 28 28 29 29 29 29 29 29 28 27 27 26 27 27 27 27 27 27 27 27 27 27 26 27 27 27 27 27 27 28 28 29 28 28 29 29 28 28 28 28 27 28 28
26 25 25 25 24 22 21 21 21 22 21 22 21 19 18 18 17 17 19 23 24 21 20 20 21 22 23 24 24 22 23 23 24 24 23 23 23 24 25 26 27 28 28 27 27 27 28 28 29 29 29 28 27 26 26 26 26 27 27 27 27 27 27 27 26 26 26 26 26 26 26 26 26 27 27 28 28 28 28 28 28 27 27 27 26 26 26
23 21 20 20 20 20 19 18 19 18 19 20 20 19 17 16 14 13 16 15 17 20 19 17 16 16 16 18 20 21 23 23 23 23 23 24 24 23 25 26 26 27 27 26 26 26 28 28 28 28 28 27 26 26 26 26 25 26 27 27 26 26 26 26 26 26 26 25 25 25 25 26 26 26 27 27 27 27 27 27 27 27 27 26 25 24 24
23 22 22 23 22 21 20 19 19 19 18 18 19 20 19 17 17 18 12 12 10 13 10 16 18 16 16 16 19 20 21 22 24 25 23 24 25 26 25 24 25 27 27 26 25 26 26 26 26 27 27 27 26 26 26 25 25 25 25 26 25 25 24 24 25 25 24 24 24 24 24 24 24 24 25 25 25 25 25 25 25 25 25 24 23 23 22
25 24 23 22 22 22 20 19 19 18 17 17 16 17 18 18 15 13 13 20 10 9 10 11 18 18 18 18 19 18 20 22 23 23 24 25 23 22 25 25 24 26 24 24 24 24 25 27 27 26 26 26 26 25 25 25 24 24 24 24 23 22 23 23 23 23 23 22 22 22 22 23 23 23 23 23 24 23 23 23 23 23 23 23 22 22 21